Location: Wilkerson Pass
(39.0355°N, 105.5270°W)
Time: 13:26:50
(UTC-06:00)

OTV 5 (USA 277) - Visible Passes

Search period start: 20 June 2018 00:00
Search period end: 30 June 2018 00:00
Orbit: 313 x 320 km, 54.5° (Epoch: 19 June)

Date Brightness Start Highest point End Pass type
(mag) Time Alt. Az. Time Alt. Az. Time Alt. Az.
20 Jun ? 03:29:27 10° NW 03:31:43 55° NNW 03:31:43 55° NNW visible
20 Jun ? 21:24:21 10° NW 21:25:32 12° NNW 21:26:45 10° N visible
21 Jun ? 02:10:15 10° NNW 02:11:09 14° N 02:11:09 14° N visible
23 Jun ? 01:05:24 10° N 01:05:27 10° N 01:05:27 10° N visible
26 Jun ? 00:13:49 10° N 00:14:14 12° N 00:14:14 12° N visible
27 Jun ? 23:09:00 10° N 23:10:03 12° NNE 23:10:15 12° NNE visible
28 Jun ? 23:22:28 10° NNW 23:23:45 19° N 23:23:45 19° N visible
29 Jun ? 23:36:32 10° NW 23:37:18 17° NW 23:37:18 17° NW visible
